Home   Weather   Thiruvananthapuram   Past weeks

Flag for India Past Weather in Thiruvananthapuram, Kerala, India — Yesterday and Last 2 Weeks

Now
82 °F

Passing clouds.


Feels Like: 87 °F
Forecast: 82 / 90 °F
Wind: 5 mph from North

Location: Thiruvananthapuram

Current Time: Apr 27, 2017 at 10:31:24 pm

Latest Report: Apr 27, 2017 at 10:00 pm


Visibility: 2 mi

Pressure: 29.86 "Hg

Humidity: 70%

Dew Point: 72 °F

Location of ThiruvananthapuramLocation

Past Weather in Thiruvananthapuram — Graph

°F

Thiruvananthapuram Temperature Yesterday

Maximum temperature yesterday: 91 °F (at 12:00 pm)
Minimum temperature yesterday: 84 °F (at 3:00 am)
Average temperature yesterday: 87 °F

High & Low Weather Summary for the Past Weeks

 TemperatureHumidityPressure
High91 °F (Apr 16, 12:30 pm)94% (Apr 13, 12:00 am)29.89 "Hg (Apr 13, 12:00 am)
Low77 °F (Apr 12, 8:30 pm)59% (Apr 17, 10:00 am)29.68 "Hg (Apr 15, 2:00 pm)
Average86 °F77%29.79 "Hg
* Reported Apr 12 8:30 pm — Apr 27 9:00 pm, Thiruvananthapuram, Weather by CustomWeather, © 2017

Note: Actual official high and low records may vary slightly from our data, if they occured in-between our weather recording intervals... More about our weather records

Advertising

Thiruvananthapuram Weather History for the Previous 24 Hours

Scroll right to see more
 ConditionsComfort  
Time TempWeatherWind HumidityBarometerVisibility
9:00 pm
Thu, Apr 27
84 °FPassing clouds.5 mph66%29.86 "Hg2 mi
8:30 pm84 °FPassing clouds.7 mph70%29.83 "Hg2 mi
8:00 pm86 °FPassing clouds.6 mph84%29.83 "Hg2 mi
7:30 pm86 °FPartly cloudy.6 mph84%29.83 "Hg2 mi
7:00 pm88 °FThunderstorms. Broken clouds.8 mph75%29.80 "Hg2 mi
6:00 pm88 °FThunderstorms. Broken clouds.8 mph75%29.77 "Hg2 mi
5:30 pm88 °FThunderstorms. Scattered clouds.7 mph75%29.74 "Hg3 mi
5:00 pm88 °FThunderstorms. Scattered clouds.9 mph75%29.74 "Hg3 mi
4:00 pm90 °FScattered clouds.10 mph75%29.74 "Hg4 mi
3:30 pm90 °FScattered clouds.9 mph71%29.74 "Hg4 mi
3:00 pm91 °FScattered clouds.10 mph67%29.77 "Hg4 mi
2:30 pm90 °FPassing clouds.12 mph71%29.77 "Hg4 mi
2:00 pm90 °FPassing clouds.13 mph71%29.77 "Hg4 mi
1:30 pm90 °FPassing clouds.10 mph71%29.77 "Hg4 mi
1:00 pm90 °FPassing clouds.14 mph71%29.80 "Hg4 mi
12:30 pm91 °FPassing clouds.10 mph67%29.80 "Hg4 mi
12:00 pm90 °FPassing clouds.12 mph71%29.80 "Hg4 mi
11:30 am90 °FPassing clouds.10 mph71%29.83 "Hg4 mi
11:00 am90 °FPassing clouds.10 mph67%29.83 "Hg4 mi
10:00 am88 °FScattered clouds.10 mph75%29.83 "Hg4 mi
9:00 am90 °FPassing clouds.9 mph63%29.86 "Hg4 mi
8:30 am88 °FHaze.8 mph70%29.83 "Hg3 mi
8:00 am86 °FHaze.9 mph75%29.83 "Hg2 mi
7:00 am84 °FHaze.6 mph74%29.83 "Hg2 mi
6:30 am82 °FHaze.5 mph79%29.80 "Hg2 mi
6:00 am82 °FHaze.5 mph79%29.80 "Hg2 mi
5:30 am82 °FHaze.5 mph79%29.80 "Hg2 mi
5:00 am82 °FHaze.5 mph79%29.80 "Hg2 mi
4:30 am82 °FHaze.5 mph79%29.80 "Hg2 mi
4:00 am82 °FHaze.5 mph79%29.77 "Hg2 mi
3:30 am82 °FHaze.5 mph79%29.77 "Hg2 mi
3:00 am82 °FHaze.3 mph79%29.77 "Hg2 mi
2:30 am82 °FHaze.3 mph79%29.77 "Hg2 mi
2:00 am82 °FHaze.3 mph79%29.80 "Hg2 mi
1:30 am82 °FHaze.3 mph79%29.80 "Hg2 mi
1:00 am84 °FHaze.3 mph74%29.80 "Hg2 mi
12:30 am84 °FHaze.3 mph70%29.83 "Hg2 mi
12:00 am84 °FHaze.5 mph70%29.83 "Hg2 mi
11:30 pm
Wed, Apr 26
84 °FHaze.5 mph74%29.83 "Hg2 mi
11:00 pm84 °FHaze.3 mph74%29.86 "Hg2 mi
10:30 pm86 °FHaze.6 mph75%29.86 "Hg2 mi
10:00 pm86 °FHaze.7 mph84%29.83 "Hg2 mi
Weather by CustomWeather, © 2017

See weather overviewHow to use our weather pages